FW2073 Weather Reports


Display with metric or nautical units.
time (UTC)temp
F
wind
direction
speed
MPH
gust
MPH
rain 1hr
in
rain 24hr
in
rain mn
in
humidity
%
barometer
mb
20260510193017 63 149 0.0 8.0 0.00 0.10 0.09 65 1010.3
20260510191520 62 91 0.0 12.0 0.00 0.10 0.09 58 1010.4
20260510190050 61 339 0.0 15.0 0.00 0.10 0.09 61 1010.5
20260510184541 61 63 0.0 13.0 0.00 0.10 0.09 68 1010.5
20260510183032 59 70 0.0 7.0 0.03 0.10 0.09 83 1010.5
20260510181529 58 82 0.0 0.0 0.06 0.10 0.09 93 1010.8
20260510180030 55 269 0.0 0.0 0.06 0.10 0.09 94 1010.8
20260510174527 55 278 0.0 0.0 0.06 0.10 0.09 93 1010.8
20260510173024 56 84 0.0 0.0 0.03 0.07 0.06 87 1010.8
20260510171523 58 237 0.0 7.0 0.00 0.04 0.03 83 1010.6
20260510170020 56 301 0.0 1.0 0.00 0.04 0.03 91 1010.7
20260510164521 55 303 0.0 4.0 0.00 0.04 0.03 91 1010.5
20260510163014 55 303 0.0 8.0 0.00 0.04 0.03 92 1010.6
20260510161514 55 301 0.0 1.0 0.01 0.04 0.03 93 1010.6
20260510160012 55 288 0.0 7.0 0.01 0.04 0.03 92 1010.5
20260510154512 54 53 0.0 0.0 0.01 0.04 0.03 94 1010.7
20260510153009 53 278 0.0 0.0 0.03 0.04 0.03 92 1010.9
20260510151508 54 295 0.0 1.0 0.02 0.03 0.02 90 1010.7
20260510150007 55 233 0.0 0.0 0.02 0.03 0.02 90 1010.5
20260510144505 54 59 0.0 0.0 0.02 0.03 0.02 89 1010.6
20260510143003 54 279 0.0 0.0 0.00 0.01 0.00 88 1010.6
20260510141502 54 331 0.0 0.0 0.00 0.01 0.00 87 1010.6
20260510140001 54 356 0.0 1.0 0.00 0.01 0.00 87 1010.6
20260510134501 54 309 0.0 1.0 0.00 0.01 0.00 87 1010.6
20260510133055 53 274 0.0 0.0 0.00 0.01 0.00 88 1010.4
20260510131554 53 39 0.0 0.0 0.00 0.01 0.00 90 1010.6
20260510130049 52 57 0.0 0.0 0.00 0.01 0.00 91 1010.8
20260510124550 51 72 0.0 0.0 0.00 0.01 0.00 93 1010.5
20260510123045 51 283 0.0 0.0 0.00 0.01 0.00 93 1010.7
20260510121540 50 274 0.0 0.0 0.00 0.01 0.00 95 1010.5
20260510120038 49 317 0.0 0.0 0.00 0.01 0.00 96 1010.7
20260510114535 49 302 0.0 1.0 0.00 0.01 0.00 97 1010.7
20260510113031 48 276 0.0 0.0 0.00 0.01 0.00 99 1010.5
20260510111527 48 112 0.0 0.0 0.00 0.01 0.00 99 1010.4
20260510110024 47 238 0.0 0.0 0.00 0.01 0.00 99 1009.9
20260510104524 46 258 0.0 0.0 0.00 0.01 0.00 99 1010.1
20260510103020 46 62 0.0 0.0 0.00 0.01 0.00 99 1010.2
20260510101548 45 288 0.0 0.0 0.00 0.01 0.00 99 1010.0
20260510100048 45 288 0.0 0.0 0.01 0.01 0.00 99 1009.8
20260510094543 45 288 0.0 0.0 0.01 0.01 0.00 98 1009.2
20260510093055 45 285 0.0 0.0 0.01 0.01 0.01 98 1009.2
20260510091642 45 285 0.0 0.0 0.01 0.01 0.01 97 1009.0
20260510090037 46 256 0.0 0.0 0.00 0.00 0.00 97 1009.4
20260510084537 46 256 0.0 0.0 0.00 0.00 0.00 96 1009.4
20260510083039 46 279 0.0 0.0 0.00 0.00 0.00 96 1009.7
20260510081541 46 249 0.0 0.0 0.00 0.00 0.00 95 1009.9
20260510080033 46 249 0.0 0.0 0.00 0.00 0.00 95 1009.4
20260510074502 46 249 0.0 0.0 0.00 0.00 0.00 95 1009.6
20260510073106 46 249 0.0 0.0 0.00 0.00 0.00 95 1009.9
20260510071559 46 248 0.0 0.0 0.00 0.00 0.00 94 1010.0
20260510070057 46 225 0.0 0.0 0.00 0.00 0.00 94 1010.0
20260510064601 46 252 0.0 0.0 0.00 0.00 0.00 94 1009.9
20260510063055 46 151 0.0 0.0 0.00 0.00 0.00 94 1010.0
20260510061553 46 140 0.0 0.0 0.00 0.00 0.00 94 1010.2
20260510060056 46 250 0.0 0.0 0.00 0.00 0.00 94 1010.0
20260510054552 46 300 0.0 0.0 0.00 0.00 0.00 94 1010.0
20260510053106 46 271 0.0 0.0 0.00 0.00 0.00 93 1010.2
20260510051601 46 51 0.0 0.0 0.00 0.00 0.00 93 1010.4
20260510050059 46 290 0.0 2.0 0.00 0.00 0.00 93 1010.3
20260510044601 46 302 0.0 1.0 0.00 0.00 0.00 92 1010.2
20260510043053 46 288 0.0 1.0 0.00 0.00 0.00 92 1010.2
20260510041543 46 300 0.0 0.0 0.00 0.00 0.00 92 1010.4
20260510040045 46 293 0.0 6.0 0.00 0.00 0.00 92 1010.7
20260510034543 46 271 0.0 0.0 0.00 0.00 0.00 92 1010.4
20260510033056 46 323 0.0 5.0 0.00 0.00 0.00 91 1010.4
20260510031539 47 326 0.0 1.0 0.00 0.00 0.00 91 1010.6
20260510030045 47 342 0.0 6.0 0.00 0.00 0.00 91 1010.7
20260510024536 47 317 0.0 1.0 0.00 0.00 0.00 90 1010.6
20260510023035 47 261 0.0 3.0 0.00 0.00 0.00 89 1010.7
20260510021534 47 283 0.0 0.0 0.00 0.00 0.00 89 1010.8
20260510020034 47 301 0.0 1.0 0.00 0.00 0.00 89 1010.8
20260510014538 47 293 0.0 0.0 0.00 0.00 0.00 89 1010.8
20260510013035 47 13 0.0 0.0 0.00 0.00 0.00 89 1011.2
20260510011501 47 309 0.0 0.0 0.00 0.00 0.00 89 1011.3
20260510010100 47 265 0.0 0.0 0.00 0.00 0.00 88 1011.1
20260510010001 47 308 0.0 0.0 0.00 0.00 0.00 88 1011.2
20260510004557 47 53 0.0 0.0 0.00 0.00 0.00 88 1011.0
20260510003103 47 317 0.0 0.0 0.00 0.00 0.00 88 1010.8
20260510001558 47 297 0.0 0.0 0.00 0.00 0.00 88 1010.7
20260510000100 47 277 0.0 0.0 0.00 0.00 0.00 87 1010.7
20260509234558 47 299 0.0 0.0 0.00 0.00 0.00 87 1010.7
20260509233101 47 278 0.0 0.0 0.00 0.00 0.00 86 1010.8
20260509231553 47 288 0.0 0.0 0.00 0.00 0.00 86 1010.7
20260509230052 47 313 0.0 0.0 0.00 0.00 0.00 85 1010.8
20260509224520 47 300 0.0 0.0 0.00 0.00 0.00 85 1010.7
20260509223021 47 267 0.0 0.0 0.00 0.00 0.00 84 1010.9
20260509221518 47 307 0.0 0.0 0.00 0.00 0.00 83 1010.9
20260509220015 47 311 0.0 0.0 0.00 0.00 0.00 83 1011.0
20260509214515 47 289 0.0 1.0 0.00 0.00 0.00 83 1011.0
20260509213014 47 304 0.0 0.0 0.00 0.00 0.00 83 1011.2
20260509211511 47 289 0.0 0.0 0.00 0.00 0.00 84 1011.3
20260509210017 47 297 0.0 0.0 0.00 0.00 0.00 84 1011.4
20260509204509 47 288 0.0 0.0 0.00 0.00 0.00 84 1011.5
20260509203008 47 275 0.0 0.0 0.00 0.00 0.00 85 1011.5
20260509201509 47 305 0.0 0.0 0.00 0.00 0.00 87 1011.4
20260509200004 46 260 0.0 0.0 0.00 0.00 0.00 87 1011.6
20260509194504 46 271 0.0 0.0 0.00 0.00 0.00 85 1011.9
20260509194502 46 310 0.0 0.0 0.00 0.00 0.00 85 1011.9